EW4347 Weather Reports


time (UTC)temp
C
wind
direction
speed
KPH
gust
KPH
rain 1hr
cm
rain 24hr
cm
rain mn
cm
humidity
%
barometer
mb
20260507115253 8 250 3.2 17.7 0.00 2.34 0.41 85 1005.4
20260507114753 8 255 6.4 17.7 0.00 2.34 0.41 87 1005.3
20260507114651 8 251 8.0 14.5 0.00 2.34 0.41 86 1005.3
20260507114253 8 212 4.8 11.3 0.00 2.34 0.41 88 1005.2
20260507113752 8 188 3.2 9.7 0.00 2.34 0.41 89 1005.3
20260507113252 8 168 3.2 9.7 0.00 2.34 0.41 89 1005.6
20260507113137 8 167 4.8 11.3 0.00 2.34 0.41 89 1005.7
20260507112752 8 227 3.2 11.3 0.00 2.34 0.41 89 1005.6
20260507112230 7 236 6.4 9.7 0.00 2.34 0.41 89 1005.4
20260507111730 7 206 4.8 12.9 0.00 2.34 0.41 91 1005.1
20260507111622 7 211 4.8 12.9 0.00 2.34 0.41 92 1005.2
20260507111148 7 233 4.8 12.9 0.00 2.34 0.41 91 1005.3
20260507110647 7 232 4.8 9.7 0.00 2.34 0.41 93 1005.2
20260507110147 7 235 3.2 9.7 0.00 2.34 0.41 94 1005.2
20260507110059 7 233 3.2 9.7 0.00 2.34 0.41 94 1005.2
20260507105646 6 214 3.2 8.0 0.00 2.34 0.41 94 1005.3
20260507105146 6 263 1.6 8.0 0.00 2.34 0.41 95 1005.4
20260507104646 6 247 3.2 8.0 0.00 2.34 0.41 95 1005.5
20260507104543 6 276 3.2 8.0 0.00 2.34 0.41 95 1005.5
20260507104103 6 293 3.2 6.4 0.00 2.34 0.41 95 1005.3
20260507103603 6 273 1.6 12.9 0.00 2.34 0.41 95 1004.9
20260507103103 6 244 3.2 12.9 0.00 2.34 0.41 96 1004.9
20260507103029 6 263 3.2 9.7 0.00 2.34 0.41 96 1004.9
20260507102602 6 199 3.2 6.4 0.00 2.34 0.41 96 1004.9
20260507102102 6 198 1.6 6.4 0.00 2.34 0.41 97 1005.1
20260507101601 6 199 1.6 6.4 0.00 2.34 0.41 97 1005.0
20260507101511 6 199 1.6 6.4 0.00 2.34 0.41 97 1004.9
20260507101101 6 185 0.0 4.8 0.00 2.34 0.41 97 1004.8
20260507100601 6 185 1.6 4.8 0.00 2.34 0.41 97 1005.1
20260507095600 6 209 0.0 4.8 0.03 2.34 0.41 97 1004.9
20260507095100 6 170 0.0 3.2 0.03 2.34 0.41 97 1004.9
20260507094600 6 141 0.0 3.2 0.03 2.34 0.41 97 1004.9
20260507094039 6 154 0.0 3.2 0.03 2.34 0.41 97 1004.9
20260507093538 6 251 0.0 3.2 0.03 2.34 0.41 97 1004.8
20260507093038 6 251 0.0 3.2 0.03 2.34 0.41 96 1005.0
20260507092536 6 251 0.0 3.2 0.03 2.34 0.41 96 1004.9
20260507092036 6 251 0.0 4.8 0.03 2.34 0.41 96 1005.0
20260507091536 6 251 1.6 4.8 0.03 2.34 0.41 96 1005.1
20260507091035 6 251 1.6 4.8 0.03 2.34 0.41 96 1005.1
20260507090535 6 251 1.6 3.2 0.03 2.34 0.41 96 1004.8
20260507090014 6 252 0.0 3.2 0.03 2.34 0.41 95 1004.5
20260507085513 6 252 0.0 3.2 0.00 2.31 0.38 95 1004.3
20260507085013 6 252 0.0 4.8 0.00 2.31 0.38 95 1004.2
20260507084513 6 246 0.0 6.4 0.00 2.31 0.38 95 1004.4
20260507084013 6 246 3.2 11.3 0.00 2.31 0.38 95 1004.6
20260507083451 6 256 3.2 11.3 0.00 2.31 0.38 95 1004.6
20260507082951 6 276 1.6 11.3 0.00 2.31 0.38 95 1004.5
20260507082430 6 249 1.6 11.3 0.00 2.31 0.38 95 1004.7
20260507081929 7 246 3.2 9.7 0.00 2.31 0.38 95 1004.7
20260507081429 7 237 1.6 9.7 0.00 2.31 0.38 95 1004.9
20260507080928 7 250 3.2 4.8 0.00 2.31 0.38 95 1004.8
20260507080428 7 248 0.0 9.7 0.00 2.31 0.38 95 1004.9
20260507075928 7 250 3.2 9.7 0.00 2.31 0.38 95 1004.7
20260507075428 7 262 1.6 4.8 0.00 2.31 0.38 95 1004.6
20260507074927 7 263 1.6 6.4 0.00 2.31 0.38 95 1004.4
20260507074427 7 265 1.6 8.0 0.00 2.31 0.38 95 1004.3
20260507073926 7 266 3.2 11.3 0.00 2.31 0.38 95 1004.4
20260507073426 7 249 4.8 11.3 0.00 2.31 0.38 95 1004.6
20260507072926 7 257 4.8 11.3 0.00 2.31 0.38 96 1004.5
20260507072404 7 250 1.6 9.7 0.00 2.31 0.38 96 1004.5
20260507071904 7 231 3.2 6.4 0.00 2.31 0.38 96 1004.4
20260507071643 7 219 3.2 6.4 0.00 2.31 0.38 96 1004.4
20260507071403 7 218 1.6 6.4 0.00 2.31 0.38 96 1004.3
20260507070903 7 212 1.6 8.0 0.00 2.31 0.38 97 1004.1
20260507070403 7 212 3.2 8.0 0.00 2.31 0.38 97 1004.1
20260507070130 7 290 1.6 4.8 0.03 2.31 0.38 97 1003.9
20260507065903 7 291 1.6 4.8 0.03 2.31 0.38 97 1003.8
20260507065402 7 291 1.6 3.2 0.03 2.31 0.38 96 1003.9
20260507064902 7 291 0.0 3.2 0.05 2.31 0.38 96 1003.9
20260507064604 7 291 0.0 3.2 0.05 2.31 0.38 96 1004.1
20260507064401 7 291 0.0 3.2 0.08 2.31 0.38 96 1004.1
20260507063902 7 291 1.6 4.8 0.10 2.31 0.38 96 1004.1
20260507063401 7 292 1.6 8.0 0.10 2.31 0.38 96 1003.8
20260507063051 7 292 1.6 9.7 0.10 2.31 0.38 96 1003.9
20260507062901 7 303 1.6 9.7 0.10 2.31 0.38 95 1003.7
20260507062400 7 276 3.2 6.4 0.10 2.31 0.38 96 1003.8
20260507061900 7 316 3.2 8.0 0.15 2.31 0.38 96 1003.7
20260507061533 8 319 4.8 8.0 0.15 2.31 0.38 96 1003.6
20260507061400 8 296 3.2 8.0 0.15 2.31 0.38 96 1003.6
20260507060859 8 273 1.6 11.3 0.15 2.31 0.38 96 1003.9
20260507060359 8 273 4.8 14.5 0.18 2.31 0.38 95 1003.7
20260507060021 8 268 4.8 14.5 0.15 2.29 0.36 96 1003.8
20260507055859 8 279 6.4 14.5 0.15 2.29 0.36 96 1003.6
20260507055358 8 298 3.2 8.0 0.15 2.29 0.36 96 1003.4
20260507054858 8 276 3.2 8.0 0.15 2.26 0.33 96 1003.7
20260507054358 8 270 1.6 9.7 0.15 2.24 0.30 96 1003.9
20260507053857 8 271 3.2 14.5 0.15 2.21 0.28 96 1003.7
20260507053357 8 264 3.2 14.5 0.18 2.21 0.28 96 1003.9
20260507052857 8 245 3.2 11.3 0.20 2.21 0.28 96 1003.9
20260507052357 8 259 4.8 17.7 0.20 2.21 0.28 96 1004.1
20260507051835 8 243 3.2 17.7 0.18 2.16 0.23 96 1004.3
20260507051335 8 252 4.8 12.9 0.18 2.16 0.23 96 1004.0
20260507050835 8 270 4.8 12.9 0.20 2.16 0.23 96 1003.7
20260507050334 8 278 1.6 16.1 0.18 2.13 0.20 95 1003.8
20260507045834 8 269 6.4 17.7 0.20 2.13 0.20 95 1003.8
20260507045333 8 276 6.4 17.7 0.20 2.13 0.20 95 1003.6
20260507044833 8 291 6.4 16.1 0.20 2.11 0.18 95 1003.6
20260507044333 8 295 6.4 24.1 0.23 2.08 0.15 95 1003.7
20260507043811 8 245 11.3 24.1 0.20 2.06 0.13 95 1003.6
20260507043311 9 263 6.4 20.9 0.20 2.03 0.10 96 1003.8
20260507042811 9 270 9.7 20.9 0.18 2.01 0.08 96 1003.7
20260507042311 9 274 4.8 17.7 0.18 2.01 0.08 96 1003.8
20260507041810 10 322 6.4 16.1 0.18 1.98 0.05 96 1003.8
20260507041249 10 251 6.4 12.9 0.18 1.98 0.05 96 1003.8
20260507040749 10 278 4.8 16.1 0.15 1.96 0.03 96 1003.6
20260507040248 10 279 8.0 17.7 0.15 1.96 0.03 96 1003.5
20260507035748 10 297 9.7 20.9 0.13 1.93 1.93 95 1003.3
20260507035248 11 300 6.4 17.7 0.10 1.91 1.91 95 1003.2
20260507034747 11 256 8.0 17.7 0.10 1.88 1.88 97 1003.0
20260507034226 12 199 1.6 12.9 0.10 1.85 1.85 97 1002.8
20260507033725 12 157 4.8 16.1 0.15 1.85 1.85 97 1002.7
20260507033225 12 154 9.7 19.3 0.13 1.83 1.83 97 1002.7
20260507032704 12 172 8.0 19.3 0.15 1.83 1.83 97 1002.6
20260507032204 12 152 4.8 16.1 0.15 1.83 1.83 97 1002.6
20260507031703 12 175 6.4 16.1 0.13 1.80 1.80 97 1002.6
20260507031203 12 191 6.4 14.5 0.13 1.80 1.80 97 1002.5
20260507030702 12 164 6.4 19.3 0.13 1.80 1.80 97 1002.5
20260507030149 12 169 6.4 19.3 0.13 1.80 1.80 97 1002.6
20260507030120 12 180 8.0 19.3 0.15 1.80 1.80 97 1002.5
20260507025620 12 179 8.0 19.3 0.15 1.80 1.80 97 1002.5
20260507025058 12 169 8.0 19.3 0.15 1.80 1.80 97 1002.5
20260507024633 12 179 4.8 14.5 0.13 1.78 1.78 97 1002.6
20260507024558 12 221 4.8 14.5 0.10 1.75 1.75 97 1002.6
20260507024058 12 133 8.0 14.5 0.08 1.73 1.73 97 1002.6
20260507023558 12 145 6.4 14.5 0.05 1.70 1.70 97 1002.5
20260507023057 12 127 6.4 17.7 0.05 1.70 1.70 97 1002.4
20260507022557 12 110 9.7 20.9 0.05 1.68 1.68 97 1002.4
20260507022056 12 152 6.4 17.7 0.05 1.68 1.68 97 1002.4
20260507021556 12 122 9.7 19.3 0.05 1.68 1.68 97 1002.5
20260507021056 12 156 9.7 19.3 0.05 1.68 1.68 97 1002.5
20260507020555 12 126 4.8 16.1 0.05 1.68 1.68 97 1002.7
20260507020055 12 151 4.8 16.1 0.03 1.65 1.65 97 1002.6
20260507015555 12 79 4.8 24.1 0.03 1.65 1.65 97 1002.7
20260507015054 12 100 11.3 29.0 0.03 1.65 1.65 97 1002.9
20260507014554 12 133 8.0 29.0 0.03 1.65 1.65 97 1003.0
20260507014537 12 100 8.0 29.0 0.03 1.65 1.65 97 1003.0
20260507014011 12 89 14.5 25.7 0.05 1.65 1.65 97 1003.1
20260507013511 12 138 8.0 20.9 0.05 1.65 1.65 97 1003.1
20260507013011 12 77 4.8 20.9 0.05 1.65 1.65 97 1003.1
20260507013002 12 77 4.8 20.9 0.05 1.65 1.65 97 1003.2
20260507012510 12 93 11.3 20.9 0.03 1.63 1.63 97 1003.2
20260507012010 12 87 8.0 19.3 0.05 1.63 1.63 97 1003.3
20260507011510 12 110 4.8 14.5 0.08 1.63 1.63 97 1003.4
20260507010510 12 106 6.4 20.9 0.08 1.63 1.63 97 1003.7
20260507010009 12 124 6.4 22.5 0.08 1.63 1.63 97 1003.6
20260507005509 12 122 9.7 22.5 0.08 1.63 1.63 97 1003.8
20260507005009 12 91 11.3 22.5 0.08 1.63 1.63 97 1003.8
20260507004508 12 140 9.7 20.9 0.08 1.63 1.63 97 1003.9
20260507004008 12 124 8.0 22.5 0.05 1.60 1.60 97 1003.9
20260507003508 12 133 8.0 22.5 0.05 1.60 1.60 97 1003.9
20260507003007 12 62 8.0 16.1 0.05 1.60 1.60 97 1003.9
20260507002507 12 177 6.4 16.1 0.05 1.60 1.60 97 1004.0
20260507002007 12 104 3.2 16.1 0.03 1.57 1.57 97 1004.0
20260507001506 12 140 6.4 16.1 0.00 1.55 1.55 97 1004.1
20260507001006 12 104 8.0 19.3 0.00 1.55 1.55 97 1004.1
20260507000506 12 63 3.2 19.3 0.00 1.55 1.55 97 1004.2
20260507000006 12 129 6.4 14.5 0.03 1.55 1.55 97 1004.2
20260506235505 12 122 4.8 11.3 0.08 1.55 1.55 97 1004.3
20260506234923 12 96 4.8 14.5 0.20 1.55 1.55 97 1004.3
20260506234422 12 117 8.0 14.5 0.23 1.55 1.55 97 1004.3
20260506233922 12 121 4.8 14.5 0.25 1.55 1.55 97 1004.3
20260506233422 12 142 3.2 9.7 0.28 1.55 1.55 97 1004.4
20260506232900 12 114 3.2 11.3 0.30 1.55 1.55 97 1004.4
20260506232400 12 86 3.2 9.7 0.46 1.55 1.55 97 1004.4
20260506231900 12 112 1.6 9.7 0.48 1.55 1.55 97 1004.5
20260506231359 12 128 1.6 11.3 0.51 1.55 1.55 97 1004.5
20260506230859 12 83 4.8 11.3 0.56 1.55 1.55 97 1004.5
20260506230359 12 58 3.2 14.5 0.56 1.55 1.55 96 1004.6
20260506225858 12 100 6.4 19.3 0.53 1.47 1.47 96 1004.5
20260506225337 12 94 4.8 12.9 0.51 1.45 1.45 96 1004.6
20260506224837 12 131 4.8 12.9 0.41 1.32 1.32 96 1004.6
20260506224337 12 122 3.2 11.3 0.41 1.32 1.32 96 1004.7
20260506223836 12 115 3.2 16.1 0.41 1.30 1.30 96 1004.7
20260506223336 12 135 4.8 16.1 0.38 1.27 1.27 96 1004.8
20260506223150 12 182 9.7 16.1 0.36 1.24 1.24 96 1004.8
20260506222836 12 107 4.8 19.3 0.33 1.19 1.19 96 1005.0
20260506222335 12 152 8.0 19.3 0.23 1.09 1.09 96 1004.9
20260506221835 12 141 6.4 14.5 0.18 1.04 1.04 96 1004.8
20260506221335 13 115 8.0 14.5 0.18 1.02 1.02 96 1004.8
20260506220834 13 137 6.4 17.7 0.18 0.99 0.99 96 1004.9
20260506220334 13 132 8.0 25.7 0.18 0.97 0.97 96 1004.9
20260506220109 13 106 8.0 25.7 0.18 0.97 0.97 96 1004.9
20260506215834 12 115 9.7 25.7 0.18 0.97 0.97 96 1004.8
20260506215333 12 120 9.7 20.9 0.18 0.94 0.94 96 1004.9
20260506214833 12 91 11.3 20.9 0.20 0.94 0.94 96 1004.8
20260506214556 12 92 9.7 19.3 0.18 0.91 0.91 96 1004.9
20260506214312 12 105 4.8 19.3 0.18 0.91 0.91 96 1004.8
20260506213811 12 71 8.0 20.9 0.18 0.89 0.89 96 1004.7
20260506213311 12 115 8.0 20.9 0.20 0.89 0.89 96 1004.8
20260506213054 12 79 8.0 19.3 0.23 0.89 0.89 95 1004.9
20260506212811 12 139 6.4 19.3 0.23 0.86 0.86 95 1004.9
20260506212310 12 110 6.4 19.3 0.25 0.86 0.86 95 1004.9
20260506211749 12 97 8.0 16.1 0.28 0.86 0.86 95 1005.0
20260506211532 12 120 4.8 17.7 0.25 0.84 0.84 95 1005.0
20260506211248 12 126 8.0 19.3 0.28 0.84 0.84 95 1004.9
20260506210748 12 126 6.4 24.1 0.28 0.81 0.81 95 1005.1
20260506210248 12 156 6.4 24.1 0.28 0.79 0.79 95 1005.2
20260506210001 12 118 9.7 24.1 0.30 0.79 0.79 95 1005.2
20260506205747 12 148 9.7 17.7 0.30 0.79 0.79 95 1005.2
20260506205247 12 142 6.4 17.7 0.30 0.76 0.76 95 1005.2
20260506204747 12 141 8.0 17.7 0.36 0.74 0.74 95 1005.1
20260506204246 12 156 4.8 19.3 0.38 0.71 0.71 95 1005.1
20260506203725 12 154 8.0 19.3 0.41 0.69 0.69 95 1005.2
20260506203204 13 154 8.0 25.7 0.41 0.66 0.66 95 1005.2
20260506202703 13 161 8.0 19.3 0.41 0.64 0.64 95 1005.3
20260506202203 13 68 8.0 17.7 0.43 0.61 0.61 94 1005.3
20260506201702 13 95 6.4 17.7 0.43 0.58 0.58 94 1005.2
20260506201202 13 130 4.8 17.7 0.43 0.56 0.56 94 1005.3
20260506200702 13 134 4.8 22.5 0.43 0.53 0.53 94 1005.4
20260506200202 13 143 6.4 22.5 0.43 0.51 0.51 94 1005.2
20260506195702 13 106 4.8 20.9 0.43 0.48 0.48 93 1005.3
20260506195201 13 110 8.0 17.7 0.41 0.43 0.43 93 1005.2
20260506194701 13 48 8.0 16.1 0.36 0.38 0.38 93 1005.3
20260506194200 13 125 6.4 14.5 0.33 0.33 0.33 92 1005.3
20260506193700 13 100 6.4 19.3 0.28 0.28 0.28 92 1005.3
20260506193200 13 88 11.3 19.3 0.25 0.25 0.25 91 1005.1
20260506192659 14 75 6.4 14.5 0.23 0.23 0.23 91 1005.3
20260506192159 14 66 8.0 14.5 0.18 0.18 0.18 91 1005.4
20260506191659 14 79 6.4 19.3 0.15 0.15 0.15 91 1005.4
20260506191137 14 118 9.7 19.3 0.13 0.13 0.13 90 1005.5
20260506190637 15 92 6.4 17.7 0.10 0.10 0.10 89 1005.5
20260506190136 15 73 8.0 19.3 0.05 0.05 0.05 87 1005.5
20260506185636 15 100 8.0 19.3 0.03 0.03 0.03 86 1005.4
20260506185136 15 78 4.8 14.5 0.03 0.03 0.03 85 1005.7
20260506184614 16 87 4.8 12.9 0.03 0.03 0.03 84 1005.7
20260506184114 16 96 8.0 20.9 0.00 0.00 0.00 82 1005.6
20260506183614 16 86 6.4 20.9 0.00 0.00 0.00 81 1005.7
20260506183052 16 95 4.8 14.5 0.00 0.00 0.00 82 1005.7
20260506182552 16 80 4.8 17.7 0.00 0.00 0.00 81 1005.8
20260506182052 16 102 8.0 17.7 0.00 0.00 0.00 80 1005.7
20260506181552 16 54 6.4 17.7 0.00 0.00 0.00 78 1005.8
20260506181051 16 73 6.4 20.9 0.00 0.00 0.00 77 1005.7
20260506180551 17 77 8.0 20.9 0.00 0.00 0.00 77 1006.0
20260506180050 17 102 4.8 14.5 0.00 0.00 0.00 77 1006.1
20260506175550 17 93 4.8 14.5 0.00 0.00 0.00 76 1006.1
20260506175050 17 107 3.2 16.1 0.00 0.00 0.00 76 1006.2
20260506174633 17 158 8.0 17.7 0.00 0.00 0.00 76 1006.1
20260506174550 17 79 9.7 17.7 0.00 0.00 0.00 76 1006.1
20260506174028 17 132 8.0 17.7 0.00 0.00 0.00 76 1006.1
20260506173528 17 112 8.0 16.1 0.00 0.00 0.00 77 1006.2
20260506173110 17 129 8.0 22.5 0.00 0.00 0.00 77 1006.3
20260506173028 17 115 8.0 22.5 0.00 0.00 0.00 76 1006.3
20260506172527 17 83 8.0 22.5 0.00 0.00 0.00 76 1006.5
20260506172027 17 124 9.7 19.3 0.00 0.00 0.00 77 1006.6
20260506171554 16 104 6.4 17.7 0.00 0.00 0.00 77 1006.8
20260506171527 16 79 8.0 17.7 0.00 0.00 0.00 77 1006.8
20260506171026 16 131 6.4 14.5 0.00 0.00 0.00 78 1006.8
20260506170505 16 97 6.4 14.5 0.00 0.00 0.00 76 1006.9
20260506170005 16 92 6.4 12.9 0.00 0.00 0.00 77 1007.0
20260506165504 16 149 3.2 12.9 0.00 0.00 0.00 77 1007.1
20260506165004 16 154 8.0 12.9 0.00 0.00 0.00 77 1007.2
20260506164524 16 111 6.4 12.9 0.00 0.00 0.00 77 1007.3
20260506164504 16 123 6.4 12.9 0.00 0.00 0.00 77 1007.2
20260506164004 17 166 4.8 14.5 0.00 0.00 0.00 76 1007.2
20260506163503 17 116 4.8 22.5 0.00 0.00 0.00 76 1007.4
20260506163003 17 108 8.0 22.5 0.00 0.00 0.00 76 1007.6
20260506162942 17 64 8.0 22.5 0.00 0.00 0.00 76 1007.5
20260506162441 17 124 9.7 27.4 0.00 0.00 0.00 76 1007.5
20260506161941 17 137 4.8 27.4 0.00 0.00 0.00 76 1007.5
20260506161440 17 90 8.0 19.3 0.00 0.00 0.00 76 1007.5
20260506160940 17 135 3.2 14.5 0.00 0.00 0.00 77 1007.4
20260506160440 16 95 3.2 20.9 0.00 0.00 0.00 77 1007.5
20260506155940 16 172 8.0 25.7 0.00 0.00 0.00 77 1007.6
20260506155357 16 76 8.0 20.9 0.00 0.00 0.00 77 1007.6
20260506154857 16 126 6.4 16.1 0.00 0.00 0.00 77 1007.6
20260506154356 16 136 4.8 16.1 0.00 0.00 0.00 78 1007.6
20260506153856 16 115 6.4 16.1 0.00 0.00 0.00 78 1007.8
20260506153356 15 76 6.4 14.5 0.00 0.00 0.00 79 1007.8
20260506152834 15 73 8.0 12.9 0.00 0.00 0.00 79 1007.8
20260506152334 15 75 8.0 12.9 0.00 0.00 0.00 79 1007.6
20260506151834 15 65 8.0 17.7 0.00 0.00 0.00 78 1007.4
20260506151334 15 37 11.3 17.7 0.00 0.00 0.00 78 1007.4
20260506150833 16 52 8.0 19.3 0.00 0.00 0.00 78 1007.3
20260506150333 16 85 12.9 19.3 0.00 0.00 0.00 77 1007.3
20260506145833 16 112 8.0 19.3 0.00 0.00 0.00 77 1007.0
20260506145332 15 31 4.8 14.5 0.00 0.00 0.00 78 1007.3
20260506144832 15 44 4.8 14.5 0.00 0.00 0.00 78 1007.6
20260506144332 15 37 6.4 9.7 0.00 0.00 0.00 78 1008.0
20260506143832 15 46 3.2 12.9 0.00 0.00 0.00 78 1007.9
20260506143331 15 50 6.4 12.9 0.00 0.00 0.00 78 1008.0
20260506142810 15 40 4.8 12.9 0.00 0.00 0.00 78 1007.9
20260506142310 15 52 4.8 14.5 0.00 0.00 0.00 79 1008.0
20260506141809 15 47 8.0 14.5 0.00 0.00 0.00 78 1008.2
20260506141309 15 51 6.4 12.9 0.00 0.00 0.00 79 1008.3
20260506140726 15 77 6.4 12.9 0.00 0.00 0.00 77 1008.4
20260506140205 15 39 3.2 11.3 0.00 0.00 0.00 79 1008.4
20260506135705 15 23 4.8 11.3 0.00 0.00 0.00 78 1008.2
20260506135204 15 10 4.8 11.3 0.00 0.00 0.00 79 1008.3
20260506134704 15 45 3.2 9.7 0.00 0.00 0.00 78 1008.3
20260506134204 15 10 3.2 8.0 0.00 0.00 0.00 78 1008.2
20260506133704 15 13 3.2 8.0 0.00 0.00 0.00 78 1008.2
20260506133203 15 41 6.4 8.0 0.00 0.00 0.00 77 1008.1
20260506133146 15 41 6.4 8.0 0.00 0.00 0.00 77 1008.1
20260506132703 15 18 3.2 8.0 0.00 0.00 0.00 79 1008.1
20260506132141 15 358 3.2 8.0 0.00 0.00 0.00 79 1008.2
20260506131641 15 32 3.2 6.4 0.00 0.00 0.00 81 1008.4
20260506131632 15 32 3.2 6.4 0.00 0.00 0.00 81 1008.4
20260506131141 15 27 1.6 8.0 0.00 0.00 0.00 79 1008.5
20260506130640 14 29 4.8 8.0 0.00 0.00 0.00 80 1008.5
20260506130140 15 39 4.8 9.7 0.00 0.00 0.00 79 1008.3
20260506130114 15 38 4.8 9.7 0.00 0.00 0.00 79 1008.4
20260506125619 14 72 1.6 9.7 0.00 0.00 0.00 81 1008.5
20260506125118 14 79 3.2 11.3 0.00 0.00 0.00 80 1008.5
20260506124618 14 69 4.8 9.7 0.00 0.00 0.00 80 1008.8
20260506124552 14 46 3.2 8.0 0.00 0.00 0.00 80 1008.8
20260506124118 14 45 3.2 6.4 0.00 0.00 0.00 80 1009.0
20260506123618 13 56 1.6 6.4 0.00 0.00 0.00 82 1009.0
20260506123117 13 60 1.6 6.4 0.00 0.00 0.00 82 1008.9
20260506123037 13 60 1.6 6.4 0.00 0.00 0.00 81 1008.9
20260506122617 13 62 0.0 11.3 0.00 0.00 0.00 82 1008.9
20260506122117 13 61 6.4 11.3 0.00 0.00 0.00 81 1009.0
20260506121555 13 54 3.2 4.8 0.00 0.00 0.00 84 1008.8
20260506121524 13 54 3.2 4.8 0.00 0.00 0.00 84 1008.9
20260506121055 13 54 1.6 6.4 0.00 0.00 0.00 84 1008.9
20260506120555 13 54 1.6 6.4 0.00 0.00 0.00 85 1008.8
20260506120055 13 56 3.2 6.4 0.00 0.00 0.00 85 1009.0
20260506120006 13 56 3.2 6.4 0.00 0.00 0.00 85 1009.0